This demonstration page uses our WeatherBlox Daily Observations layout. Learn more.

Left ArrowRight Arrow

39.08367, -84.50855

Hourly Observations for December 21, 2015

Temp ( °F °C ) Dew Point ( °F °C ) Humidity (%) Winds ( mph kmh ) Pressure ( in mb ) Visibility ( mi km ) Precip ( " mm )
12:53 am 00:53 Clear 45 7.2 25 -3.9 46 46 SSW 10 17 30.16 1022 10 16 0.00 0.00
1:53 am 01:53 Clear 47 8.3 25 -3.9 42 42 SSW 10 17 30.13 1020 10 16 0.00 0.00
2:53 am 02:53 Clear 48 8.9 25 -3.9 41 41 S 13 20 30.13 1020 10 16 0.00 0.00
3:53 am 03:53 Cloudy 47 8.3 26 -3.3 44 44 S 13 20 30.13 1020 10 16 0.00 0.03
4:53 am 04:53 Cloudy 48 8.9 26 -3.3 42 42 SSW 16 26 30.09 1019 10 16 0.00 0.00
5:53 am 05:53 Cloudy with Light Rain 48 8.9 30 -1.1 50 50 SSW 13 20 30.09 1019 10 16 0.00 0.03
6:53 am 06:53 Cloudy with Light Rain 45 7.2 36 2.2 71 71 S 12 19 30.08 1019 10 16 0.05 1.27
7:53 am 07:53 Cloudy 44 6.7 37 2.8 76 76 S 12 19 30.06 1018 10 16 0.01 0.25
8:53 am 08:53 Cloudy 46 7.8 36 2.2 68 68 S 14 22 30.03 1017 10 16 0.00 0.03
9:11 am 09:11 Cloudy 46 7.8 36 2.2 68 68 S 13 20 30.03 1017 10 16 0.00 0.00
9:53 am 09:53 Cloudy with Light Rain 46 7.8 39 3.9 77 77 SSW 9 15 30.04 1017 9 14 0.01 0.25
10:53 am 10:53 Cloudy with Light Rain 48 8.9 43 6.1 83 83 S 13 20 30.01 1016 7 11 0.03 0.76
11:32 am 11:32 Cloudy with Rain 48 9 45 7 87 87 S 13 20 30.00 1016 2 3 0.00 0.00
11:53 am 11:53 Cloudy with Rain 48 8.9 47 8.3 96 96 SSW 10 17 30.00 1016 3 4 0.08 2.03
12:12 pm 12:12 Cloudy with Light Rain 48 9 46 8 94 94 SSW 10 17 30.00 1016 8 13 0.00 0.00
12:53 pm 12:53 Cloudy with Mist and Fog 49 9.4 49 9.4 100 100 S 8 13 29.99 1016 5 8 0.02 0.51
1:53 pm 13:53 Cloudy with Light Rain 51 10.6 50 10 96 96 S 8 13 29.97 1015 3 5 0.03 0.76
2:53 pm 14:53 Cloudy with Light Rain 52 11.1 51 10.6 97 97 S 10 17 29.96 1015 4 6 0.01 0.25
3:53 pm 15:53 Cloudy with Mist and Fog 52 11.1 52 11.1 100 100 SSW 10 17 29.96 1014 4 6 0.01 0.25
4:53 pm 16:53 Cloudy with Mist and Fog 52 11.1 52 11.1 100 100 S 9 15 29.95 1014 3 5 0.00 0.00
5:53 pm 17:53 Cloudy with Mist and Fog 53 11.7 53 11.7 100 100 S 10 17 29.95 1014 3 5 0.00 0.00
6:19 pm 18:19 Cloudy with Mist and Fog 53 11.7 53 11.7 100 100 S 6 9 29.94 1014 3 5 0.00 0.00
6:53 pm 18:53 Cloudy with Mist and Fog 53 11.7 53 11.7 100 100 S 5 7 29.96 1014 3 5 0.00 0.03
7:53 pm 19:53 Cloudy with Mist and Fog 53 11.7 53 11.7 100 100 SSW 7 11 29.95 1014 4 6 0.02 0.51
8:53 pm 20:53 Cloudy with Mist and Fog 54 12.2 54 12.2 100 100 S 8 13 29.93 1013 3 5 0.00 0.00
9:46 pm 21:46 Cloudy with Light Rain 54 12 54 12 100 100 SSW 7 11 29.94 1014 3 4 0.00 0.00
9:53 pm 21:53 Cloudy with Light Rain 54 12.2 54 12.2 100 100 SSW 6 9 29.91 1013 3 5 0.01 0.25
10:53 pm 22:53 Cloudy with Light Rain 54 12.2 54 12.2 100 100 SSW 7 11 29.89 1012 3 5 0.02 0.51
11:28 pm 23:28 Cloudy with Mist and Fog 55 12.8 55 12.8 100 100 SSW 9 15 29.91 1013 4 6 0.01 0.25
11:53 pm 23:53 Cloudy with Light Rain 55 12.8 55 12.8 100 100 S 8 13 29.87 1011 4 6 0.02 0.51

Powered by AerisWeather